sat.trackr.live / text

‹ back to catalog

2024-174E

NORAD 61242 · 2024-174E

PAYLOAD ACTIVE UNKNOWN

§ Identity

Operator
Country
PRC
Launch date
2024-09-24
Launch site
JSC
Launch vehicle
Mass (kg)
RCS (m²)

External: N2YO · Heavens-Above · Gunter

§ Orbital elements

Epoch: 2026-05-25T05:00:13.622400Z

Period
94.29 min
Inclination
97.4462°
Eccentricity
0.0011819
Mean motion
15.27239337 rev/d
Perigee alt
476.0 km
Apogee alt
492.2 km
Semi-major
6,862.2 km
B*
2.3386e-4
RAAN
156.2175°
Arg perigee
321.9253°
Mean anomaly
38.1149°
Rev number
9,233

§ Raw data

2024-174E1 61242U 24174E   26145.20849100  .00006179  00000+0  23386-3 0  99922 61242  97.4462 156.2175 0011819 321.9253  38.1149 15.27239337 92336

JSON: /api/v1/satellites/61242 · /tle

For live sub-satellite position, see the globe view (requires WebGL).

§ Visibility from observer

Set your observer location to see the next 7 days of passes ≥ 10°. The values pass through the URL so the page stays shareable.

No JS? Fill the form by hand. The geolocation button needs JavaScript.